M I D A S
Marine Information and Data Acquisition System
Tripno 1083 of the Zeeleeuw from 2006-05-15 11:44:25 to 2006-05-15 13:55:33
Back to CruiseResearch ActivitiesStationsMapUnderway DataData graphs

EquipmentUnitsComments
TimeDGPSUTC
LatitudeDGPSDM.mWGS84
LongitudeDGPSDM.mWGS84
SpeedMeteo Stationm/sRelative wind speed
DirectionMeteo StationdegRelative wind direction
TemperatureMeteo Stationdeg CelciusAir temperature
PressureMeteo StationPaAtmospheric pressure
HumidityMeteo Station%Relative humidity
Missing or incorrect values are displayed as -999
Metereological data collected by the RV Zeeleeuw from 2006-05-15 07:32:01 to 2006-05-15 14:08:45
Time Latitude Longitude Speed Direction Temperature Pressure Humidity
2006-05-15 07:33 51°13.6 2°56.099 -999 37 14.4 101620 77
2006-05-15 07:34 51°13.6 2°56.099 -999 59 14.5 101620 77
2006-05-15 07:35 51°13.599 2°56.098 -999 37 14.5 101620 76
2006-05-15 07:36 51°13.599 2°56.095 -999 114 14.5 101620 76
2006-05-15 07:37 51°13.613 2°56.005 -999 124 14.5 101620 76
2006-05-15 07:38 51°13.635 2°55.905 -999 93 14.5 101620 76
2006-05-15 07:39 51°13.676 2°55.824 -999 37 14.6 101620 76
2006-05-15 07:40 51°13.732 2°55.748 -999 85 14.6 101610 76
2006-05-15 07:41 51°13.751 2°55.723 -999 92 14.7 101610 76
2006-05-15 07:42 51°13.744 2°55.692 -999 136 14.6 101610 76
2006-05-15 07:43 51°13.755 2°55.684 -999 131 14.6 101610 76
2006-05-15 07:44 51°13.799 2°55.665 -999 209 14.6 101610 76
2006-05-15 07:45 51°13.877 2°55.604 -999 184 14.7 101600 76
2006-05-15 07:46 51°13.977 2°55.534 -999 228 14.8 101610 76
2006-05-15 07:47 51°14.078 2°55.453 -999 213 14.9 101610 75
2006-05-15 07:48 51°14.176 2°55.361 -999 212 15 101600 75
2006-05-15 07:49 51°14.277 2°55.224 -999 319 15.1 101610 75
2006-05-15 07:50 51°14.374 2°55.055 -999 300 15.1 101610 74
2006-05-15 07:51 51°14.436 2°54.849 -999 328 15.2 101610 74
2006-05-15 07:52 51°14.478 2°54.569 -999 43 15.1 101600 72
2006-05-15 07:53 51°14.547 2°54.238 -999 314 15.1 101610 72
2006-05-15 07:54 51°14.61 2°53.883 -999 320 15 101600 73
2006-05-15 07:55 51°14.651 2°53.538 -999 331 14.9 101590 74
2006-05-15 07:56 51°14.649 2°53.186 -999 325 14.8 101590 74
2006-05-15 07:57 51°14.643 2°52.828 -999 330 14.7 101600 75
2006-05-15 07:58 51°14.599 2°52.466 -999 332 14.6 101590 74
2006-05-15 07:59 51°14.554 2°52.109 -999 331 14.6 101590 75
2006-05-15 08:00 51°14.538 2°51.735 -999 322 14.5 101590 76
2006-05-15 08:01 51°14.501 2°51.369 -999 332 14.5 101590 76
2006-05-15 08:02 51°14.457 2°51.005 -999 324 14.5 101580 76
2006-05-15 08:03 51°14.407 2°50.64 -999 328 14.4 101580 77
2006-05-15 08:04 51°14.353 2°50.275 -999 329 14.4 101590 78
2006-05-15 08:05 51°14.309 2°49.904 -999 330 14.4 101580 78
2006-05-15 08:06 51°14.243 2°49.537 -999 333 14.4 101580 78
2006-05-15 08:07 51°14.181 2°49.167 -999 331 14.3 101580 78
2006-05-15 08:08 51°14.119 2°48.799 -999 328 14.3 101580 79
2006-05-15 08:09 51°14.053 2°48.432 -999 321 14.3 101580 79
2006-05-15 08:10 51°14.021 2°48.129 -999 305 14.3 101580 79
2006-05-15 08:11 51°13.988 2°48.003 -999 316 14.3 101590 80
2006-05-15 08:12 51°13.983 2°47.978 -999 304 14.4 101590 80
2006-05-15 08:13 51°13.975 2°47.953 -999 297 14.5 101590 80
2006-05-15 08:14 51°13.966 2°47.926 -999 291 14.5 101590 80
2006-05-15 08:15 51°13.957 2°47.897 -999 280 14.5 101590 80
2006-05-15 08:16 51°13.949 2°47.867 -999 266 14.5 101590 79
2006-05-15 08:17 51°13.94 2°47.836 -999 262 14.5 101590 78
2006-05-15 08:18 51°13.932 2°47.804 -999 256 14.6 101590 78
2006-05-15 08:19 51°13.923 2°47.769 -999 255 14.5 101590 78
2006-05-15 08:20 51°13.915 2°47.734 -999 252 14.6 101590 78
2006-05-15 08:21 51°13.907 2°47.697 -999 255 14.6 101590 78
2006-05-15 08:22 51°13.898 2°47.659 -999 257 14.6 101600 79
2006-05-15 08:23 51°13.889 2°47.621 -999 260 14.6 101590 79
2006-05-15 08:24 51°13.88 2°47.581 -999 268 14.6 101590 79
2006-05-15 08:25 51°13.881 2°47.484 -999 265 14.6 101580 80
2006-05-15 08:26 51°13.956 2°47.409 -999 113 14.6 101590 79
2006-05-15 08:27 51°14.017 2°47.49 -999 60 14.6 101580 80
2006-05-15 08:28 51°14.009 2°47.607 -999 61 14.5 101570 80
2006-05-15 08:29 51°13.987 2°47.694 -999 73 14.4 101580 81
2006-05-15 08:30 51°13.958 2°47.762 -999 55 14.3 101580 81
2006-05-15 08:31 51°13.92 2°47.818 -999 55 14.3 101580 81
2006-05-15 08:32 51°13.895 2°47.874 -999 66 14.3 101580 81
2006-05-15 08:33 51°13.884 2°47.934 -999 91 14.3 101580 81
2006-05-15 08:34 51°13.897 2°47.999 -999 95 14.4 101580 82
2006-05-15 08:35 51°13.92 2°48.068 -999 94 14.4 101580 82
2006-05-15 08:36 51°13.943 2°48.139 -999 96 14.4 101580 82
2006-05-15 08:37 51°13.966 2°48.21 -999 99 14.5 101580 81
2006-05-15 08:38 51°13.989 2°48.277 -999 97 14.5 101580 81
2006-05-15 08:39 51°14.013 2°48.344 -999 96 14.5 101580 81
2006-05-15 08:40 51°14.036 2°48.412 -999 97 14.6 101580 80
2006-05-15 08:41 51°14.061 2°48.477 -999 99 14.7 101580 79
2006-05-15 08:42 51°14.091 2°48.536 -999 99 14.7 101570 79
2006-05-15 08:43 51°14.122 2°48.592 -999 100 14.8 101580 78
2006-05-15 08:44 51°14.153 2°48.647 -999 95 14.8 101580 78
2006-05-15 08:45 51°14.183 2°48.7 -999 89 14.9 101570 79
2006-05-15 08:46 51°14.212 2°48.754 -999 89 14.8 101570 79
2006-05-15 08:47 51°14.241 2°48.808 -999 92 14.8 101570 79
2006-05-15 08:48 51°14.268 2°48.863 -999 91 14.8 101570 80
2006-05-15 08:49 51°14.295 2°48.919 -999 99 14.8 101570 80
2006-05-15 08:50 51°14.319 2°48.979 -999 88 14.8 101570 80
2006-05-15 08:51 51°14.343 2°49.039 -999 87 14.8 101570 80
2006-05-15 08:52 51°14.366 2°49.098 -999 94 14.8 101570 80
2006-05-15 08:53 51°14.396 2°49.15 -999 104 14.8 101570 80
2006-05-15 08:54 51°14.432 2°49.195 -999 108 14.9 101570 80
2006-05-15 08:55 51°14.466 2°49.241 -999 106 14.9 101560 79
2006-05-15 08:56 51°14.498 2°49.287 -999 99 15 101570 79
2006-05-15 08:57 51°14.529 2°49.337 -999 97 15 101560 79
2006-05-15 08:58 51°14.56 2°49.386 -999 98 15.1 101560 78
2006-05-15 08:59 51°14.594 2°49.442 -999 101 15.2 101560 78
2006-05-15 09:00 51°14.63 2°49.499 -999 103 15.2 101560 79
2006-05-15 09:01 51°14.665 2°49.558 -999 107 15.2 101570 79
2006-05-15 09:02 51°14.7 2°49.617 -999 99 15.2 101560 79
2006-05-15 09:03 51°14.718 2°49.701 -999 66 15.2 101560 79
2006-05-15 09:04 51°14.704 2°49.803 -999 49 15 101560 79
2006-05-15 09:05 51°14.625 2°49.817 -999 359 15 101560 80
2006-05-15 09:06 51°14.57 2°49.699 -999 304 15.1 101550 79
2006-05-15 09:07 51°14.564 2°49.581 -999 268 15.2 101550 78
2006-05-15 09:08 51°14.577 2°49.485 -999 242 15.2 101560 78
2006-05-15 09:09 51°14.593 2°49.413 -999 221 15.3 101550 77
2006-05-15 09:10 51°14.61 2°49.357 -999 195 15.3 101550 77
2006-05-15 09:11 51°14.644 2°49.332 -999 134 15.3 101550 77
2006-05-15 09:12 51°14.699 2°49.418 -999 44 15.3 101540 77
2006-05-15 09:13 51°14.661 2°49.62 -999 31 15.2 101540 77
2006-05-15 09:14 51°14.588 2°49.742 -999 34 15.2 101540 78
2006-05-15 09:15 51°14.508 2°49.769 -999 6 15.2 101540 78
2006-05-15 09:16 51°14.429 2°49.716 -999 346 15.3 101540 77
2006-05-15 09:17 51°14.362 2°49.624 -999 335 15.4 101540 76
2006-05-15 09:18 51°14.304 2°49.514 -999 331 15.5 101540 76
2006-05-15 09:19 51°14.259 2°49.42 -999 322 15.5 101540 75
2006-05-15 09:20 51°14.224 2°49.344 -999 228 15.5 101540 75
2006-05-15 09:21 51°14.192 2°49.279 -999 320 15.6 101540 76
2006-05-15 09:22 51°14.163 2°49.218 -999 335 15.6 101530 76
2006-05-15 09:23 51°14.135 2°49.161 -999 330 15.6 101530 75
2006-05-15 09:24 51°14.107 2°49.104 -999 325 15.6 101530 74
2006-05-15 09:25 51°14.079 2°49.049 -999 332 15.7 101530 74
2006-05-15 09:26 51°14.052 2°48.996 -999 329 15.7 101530 73
2006-05-15 09:27 51°14.024 2°48.944 -999 327 15.8 101530 73
2006-05-15 09:28 51°13.994 2°48.892 -999 333 15.9 101530 72
2006-05-15 09:29 51°13.96 2°48.841 -999 338 15.8 101520 72
2006-05-15 09:30 51°13.925 2°48.789 -999 333 15.9 101520 71
2006-05-15 09:31 51°13.889 2°48.737 -999 336 16 101520 71
2006-05-15 09:32 51°13.854 2°48.683 -999 339 16 101520 71
2006-05-15 09:33 51°13.818 2°48.631 -999 332 16 101520 71
2006-05-15 09:34 51°13.782 2°48.579 -999 332 16 101520 71
2006-05-15 09:35 51°13.746 2°48.528 -999 334 16 101510 72
2006-05-15 09:36 51°13.71 2°48.478 -999 325 16 101510 73
2006-05-15 09:37 51°13.675 2°48.426 -999 322 16 101510 73
2006-05-15 09:38 51°13.643 2°48.372 -999 317 16 101510 73
2006-05-15 09:39 51°13.612 2°48.316 -999 319 16 101510 72
2006-05-15 09:40 51°13.581 2°48.26 -999 323 16.1 101510 72
2006-05-15 09:41 51°13.551 2°48.202 -999 322 16.1 101510 71
2006-05-15 09:42 51°13.521 2°48.143 -999 326 16.2 101500 70
2006-05-15 09:43 51°13.491 2°48.085 -999 317 16.3 101500 70
2006-05-15 09:44 51°13.46 2°48.029 -999 326 16.4 101500 70
2006-05-15 09:45 51°13.427 2°47.972 -999 324 16.4 101500 70
2006-05-15 09:46 51°13.395 2°47.911 -999 314 16.4 101500 71
2006-05-15 09:47 51°13.368 2°47.836 -999 300 16.5 101500 71
2006-05-15 09:48 51°13.353 2°47.752 -999 272 16.5 101500 70
2006-05-15 09:49 51°13.371 2°47.663 -999 220 16.6 101500 70
2006-05-15 09:50 51°13.413 2°47.597 -999 199 16.5 101490 69
2006-05-15 09:51 51°13.462 2°47.567 -999 158 16.7 101490 69
2006-05-15 09:52 51°13.496 2°47.561 -999 146 16.7 101490 68
2006-05-15 09:53 51°13.513 2°47.561 -999 130 16.7 101490 69
2006-05-15 09:54 51°13.52 2°47.56 -999 128 16.6 101490 70
2006-05-15 09:55 51°13.528 2°47.575 -999 85 16.5 101490 70
2006-05-15 09:56 51°13.568 2°47.73 -999 42 16.4 101480 71
2006-05-15 09:57 51°13.623 2°47.953 -999 39 16.2 101480 72
2006-05-15 09:58 51°13.683 2°48.162 -999 47 16 101480 72
2006-05-15 09:59 51°13.746 2°48.341 -999 48 16 101490 72
2006-05-15 10:00 51°13.804 2°48.519 -999 52 16 101480 72
2006-05-15 10:01 51°13.863 2°48.696 -999 39 15.9 101480 73
2006-05-15 10:02 51°13.922 2°48.872 -999 45 15.9 101480 72
2006-05-15 10:03 51°13.981 2°49.05 -999 44 16 101480 72
2006-05-15 10:04 51°14.04 2°49.227 -999 50 16 101490 72
2006-05-15 10:05 51°14.093 2°49.41 -999 49 16 101480 71
2006-05-15 10:06 51°14.141 2°49.593 -999 52 16.1 101480 71
2006-05-15 10:07 51°14.19 2°49.777 -999 53 16.1 101480 70
2006-05-15 10:08 51°14.233 2°49.967 -999 55 16.2 101480 70
2006-05-15 10:09 51°14.27 2°50.159 -999 50 16.1 101480 71
2006-05-15 10:10 51°14.305 2°50.352 -999 54 16 101480 71
2006-05-15 10:11 51°14.34 2°50.545 -999 32 16 101480 73
2006-05-15 10:12 51°14.382 2°50.765 -999 28 16 101470 72
2006-05-15 10:13 51°14.433 2°51.052 -999 25 16.2 101470 70
2006-05-15 10:14 51°14.492 2°51.348 -999 31 16.4 101470 69
2006-05-15 10:15 51°14.519 2°51.649 -999 26 16.5 101460 69
2006-05-15 10:16 51°14.541 2°51.957 -999 33 16.7 101460 67
2006-05-15 10:17 51°14.559 2°52.272 -999 29 16.8 101460 66
2006-05-15 10:18 51°14.567 2°52.579 -999 17 16.9 101460 66
2006-05-15 10:19 51°14.568 2°52.896 -999 11 16.9 101450 65
2006-05-15 10:20 51°14.551 2°53.211 -999 15 17.1 101450 64
2006-05-15 10:21 51°14.526 2°53.529 -999 35 17.2 101450 63
2006-05-15 10:22 51°14.51 2°53.844 -999 22 17.3 101440 63
2006-05-15 10:23 51°14.49 2°54.167 -999 29 17.4 101450 62
2006-05-15 10:24 51°14.466 2°54.488 -999 33 17.6 101430 61
2006-05-15 10:25 51°14.437 2°54.755 -999 27 17.7 101440 61
2006-05-15 10:26 51°14.401 2°54.965 -999 18 17.7 101440 60
2006-05-15 10:27 51°14.319 2°55.168 -999 17 17.9 101430 59
2006-05-15 10:28 51°14.192 2°55.376 -999 3 18 101430 58
2006-05-15 10:29 51°14.055 2°55.485 -999 12 18.1 101420 61
2006-05-15 10:30 51°13.946 2°55.56 -999 359 18.1 101430 61
2006-05-15 10:31 51°13.846 2°55.627 -999 10 18.2 101430 59
2006-05-15 10:32 51°13.769 2°55.693 -999 6 18.3 101430 59
2006-05-15 10:33 51°13.71 2°55.767 -999 27 18.3 101430 58
2006-05-15 10:34 51°13.662 2°55.85 -999 37 18.4 101430 58
2006-05-15 10:35 51°13.625 2°55.938 -999 40 18.5 101430 55
2006-05-15 10:36 51°13.605 2°56.017 -999 30 18.6 101430 56
2006-05-15 10:37 51°13.601 2°56.071 -999 52 18.5 101430 57
2006-05-15 10:38 51°13.601 2°56.094 -999 79 18.5 101430 57
2006-05-15 10:39 51°13.601 2°56.098 -999 70 18.6 101430 57
2006-05-15 10:40 51°13.602 2°56.099 -999 58 18.7 101430 57
2006-05-15 10:41 51°13.603 2°56.1 -999 84 18.7 101430 57
2006-05-15 10:42 51°13.602 2°56.099 -999 44 18.7 101430 55
2006-05-15 10:43 51°13.602 2°56.1 -999 73 18.7 101430 54
2006-05-15 10:44 51°13.604 2°56.1 -999 57 18.7 101430 53
2006-05-15 10:45 51°13.604 2°56.1 -999 58 18.8 101430 53
2006-05-15 10:46 51°13.603 2°56.1 -999 59 18.7 101430 53
2006-05-15 10:47 51°13.603 2°56.101 -999 65 18.7 101420 54
2006-05-15 10:48 51°13.604 2°56.1 -999 66 18.7 101420 54
2006-05-15 10:49 51°13.604 2°56.101 -999 100 18.7 101420 55
2006-05-15 10:50 51°13.604 2°56.1 -999 83 18.7 101410 55
2006-05-15 10:51 51°13.601 2°56.098 -999 17 18.7 101410 56
2006-05-15 10:52 51°13.602 2°56.098 -999 8 18.8 101410 55
2006-05-15 10:53 51°13.602 2°56.098 -999 48 18.9 101410 54
2006-05-15 10:54 51°13.603 2°56.098 -999 16 18.8 101400 54
2006-05-15 10:55 51°13.605 2°56.099 -999 16 18.9 101400 54
2006-05-15 10:56 51°13.605 2°56.099 -999 24 18.9 101400 54
2006-05-15 10:57 51°13.605 2°56.099 -999 19 18.9 101400 54
2006-05-15 10:58 51°13.604 2°56.1 -999 10 18.9 101400 54
2006-05-15 10:59 51°13.603 2°56.1 -999 23 18.9 101400 54
2006-05-15 11:00 51°13.602 2°56.1 -999 10 19 101390 54
2006-05-15 11:01 51°13.604 2°56.1 -999 14 19 101400 54
2006-05-15 11:02 51°13.603 2°56.1 -999 38 18.9 101390 54
2006-05-15 11:03 51°13.603 2°56.1 -999 4 18.9 101390 55
2006-05-15 11:04 51°13.603 2°56.1 -999 16 18.9 101390 54
2006-05-15 11:05 51°13.602 2°56.1 -999 36 18.9 101390 54
2006-05-15 11:06 51°13.603 2°56.099 -999 8 19 101390 53
2006-05-15 11:07 51°13.603 2°56.1 -999 35 19 101380 52
2006-05-15 11:08 51°13.603 2°56.099 -999 49 19 101380 52
2006-05-15 11:09 51°13.603 2°56.1 -999 51 18.9 101390 53
2006-05-15 11:10 51°13.602 2°56.1 -999 19 19 101380 54
2006-05-15 11:11 51°13.601 2°56.1 -999 55 19.1 101380 53
2006-05-15 11:12 51°13.601 2°56.1 -999 91 19.1 101380 53
2006-05-15 11:13 51°13.601 2°56.1 -999 89 19.1 101380 54
2006-05-15 11:14 51°13.602 2°56.099 -999 33 19 101380 54
2006-05-15 11:15 51°13.602 2°56.098 -999 47 19 101370 54
2006-05-15 11:16 51°13.603 2°56.098 -999 21 19 101370 55
2006-05-15 11:17 51°13.602 2°56.097 -999 27 19 101370 54
2006-05-15 11:18 51°13.601 2°56.097 -999 6 18.9 101370 54
2006-05-15 11:19 51°13.601 2°56.098 -999 49 19 101360 54
2006-05-15 11:20 51°13.602 2°56.098 -999 49 19 101360 54
2006-05-15 11:21 51°13.602 2°56.098 -999 51 18.9 101360 53
2006-05-15 11:22 51°13.602 2°56.098 -999 61 18.9 101360 54
2006-05-15 11:23 51°13.603 2°56.098 -999 60 18.9 101360 53
2006-05-15 11:24 51°13.603 2°56.098 -999 57 18.9 101350 53
2006-05-15 11:25 51°13.603 2°56.098 -999 9 18.9 101350 53
2006-05-15 11:26 51°13.603 2°56.098 -999 48 19 101350 53
2006-05-15 11:27 51°13.603 2°56.097 -999 31 19.1 101350 53
2006-05-15 11:28 51°13.603 2°56.098 -999 69 19.1 101350 52
2006-05-15 11:29 51°13.603 2°56.098 -999 32 19.1 101350 52
2006-05-15 11:30 51°13.603 2°56.098 -999 15 19.1 101340 52
2006-05-15 11:31 51°13.603 2°56.098 -999 7 19.2 101340 52
2006-05-15 11:32 51°13.602 2°56.099 -999 36 19.2 101340 53
2006-05-15 11:33 51°13.602 2°56.099 -999 12 19.2 101340 52
2006-05-15 11:34 51°13.603 2°56.098 -999 5 19.2 101340 52
2006-05-15 11:35 51°13.602 2°56.098 -999 57 19.3 101340 53
2006-05-15 11:36 51°13.602 2°56.098 -999 63 19.3 101340 53
2006-05-15 11:37 51°13.602 2°56.1 -999 80 19.2 101340 54
2006-05-15 11:38 51°13.602 2°56.099 -999 69 19.2 101340 54
2006-05-15 11:39 51°13.602 2°56.099 -999 75 19.2 101340 54
2006-05-15 11:40 51°13.602 2°56.099 -999 56 19.3 101340 53
2006-05-15 11:41 51°13.602 2°56.1 -999 20 19.3 101340 53
2006-05-15 11:42 51°13.6 2°56.099 -999 55 19.3 101340 53
2006-05-15 11:43 51°13.599 2°56.094 -999 64 19.3 101340 53
2006-05-15 11:44 51°13.6 2°56.035 -999 116 19.3 101340 53
2006-05-15 11:45 51°13.599 2°56.01 -999 62 19.3 101340 53
2006-05-15 11:46 51°13.625 2°55.948 -999 107 19.4 101330 54
2006-05-15 11:47 51°13.677 2°55.85 -999 339 19.6 101330 54
2006-05-15 11:48 51°13.719 2°55.764 -999 74 19.8 101330 52
2006-05-15 11:49 51°13.731 2°55.718 -999 76 19.8 101320 51
2006-05-15 11:50 51°13.729 2°55.717 -999 152 19.6 101310 53
2006-05-15 11:51 51°13.723 2°55.707 -999 146 19.5 101310 53
2006-05-15 11:52 51°13.806 2°55.651 -999 93 19.5 101310 53
2006-05-15 11:53 51°13.942 2°55.554 -999 7 19.5 101310 53
2006-05-15 11:54 51°14.079 2°55.458 -999 112 19.6 101310 53
2006-05-15 11:55 51°14.213 2°55.352 -999 132 19.5 101300 53
2006-05-15 11:56 51°14.316 2°55.178 -999 321 19.5 101300 54
2006-05-15 11:57 51°14.431 2°54.957 -999 305 19.6 101300 53
2006-05-15 11:58 51°14.547 2°54.701 -999 2 19.7 101290 53
2006-05-15 11:59 51°14.638 2°54.415 -999 326 19.7 101290 53
2006-05-15 12:00 51°14.678 2°54.104 -999 335 19.7 101290 53
2006-05-15 12:01 51°14.698 2°53.787 -999 340 19.6 101270 53
2006-05-15 12:02 51°14.72 2°53.466 -999 326 19.6 101280 53
2006-05-15 12:03 51°14.698 2°53.151 -999 340 19.4 101280 54
2006-05-15 12:04 51°14.661 2°52.837 -999 325 19.4 101270 53
2006-05-15 12:05 51°14.63 2°52.593 -999 42 19.4 101270 54
2006-05-15 12:06 51°14.601 2°52.485 -999 304 19.3 101280 55
2006-05-15 12:07 51°14.595 2°52.388 -999 309 19.3 101280 55
2006-05-15 12:08 51°14.603 2°52.251 -999 298 19.4 101270 54
2006-05-15 12:09 51°14.619 2°52.107 -999 301 19.4 101270 54
2006-05-15 12:10 51°14.681 2°51.992 -999 282 19.5 101270 54
2006-05-15 12:11 51°14.744 2°51.926 -999 254 19.6 101270 54
2006-05-15 12:12 51°14.793 2°51.869 -999 245 19.6 101260 53
2006-05-15 12:13 51°14.84 2°51.827 -999 229 19.6 101260 52
2006-05-15 12:14 51°14.878 2°51.78 -999 228 19.6 101260 52
2006-05-15 12:15 51°14.908 2°51.723 -999 255 19.6 101250 52
2006-05-15 12:16 51°14.932 2°51.659 -999 245 19.6 101250 53
2006-05-15 12:17 51°14.957 2°51.593 -999 263 19.5 101250 54
2006-05-15 12:18 51°14.973 2°51.527 -999 274 19.5 101250 54
2006-05-15 12:19 51°14.985 2°51.453 -999 288 19.6 101260 53
2006-05-15 12:20 51°14.989 2°51.372 -999 299 19.7 101250 54
2006-05-15 12:21 51°14.987 2°51.29 -999 301 19.7 101240 54
2006-05-15 12:22 51°14.982 2°51.209 -999 310 19.6 101250 55
2006-05-15 12:23 51°14.971 2°51.13 -999 310 19.4 101250 56
2006-05-15 12:24 51°14.961 2°51.051 -999 299 19.3 101240 56
2006-05-15 12:25 51°14.951 2°50.973 -999 296 19.2 101240 56
2006-05-15 12:26 51°14.941 2°50.896 -999 299 19.2 101240 56
2006-05-15 12:27 51°14.931 2°50.82 -999 303 19.2 101230 56
2006-05-15 12:28 51°14.927 2°50.741 -999 298 19.2 101240 57
2006-05-15 12:29 51°14.949 2°50.652 -999 278 19.2 101240 57
2006-05-15 12:30 51°15.003 2°50.583 -999 226 19.2 101240 56
2006-05-15 12:31 51°15.083 2°50.58 -999 150 19.2 101240 57
2006-05-15 12:32 51°15.162 2°50.649 -999 100 19.1 101240 57
2006-05-15 12:33 51°15.215 2°50.762 -999 85 18.9 101230 58
2006-05-15 12:34 51°15.238 2°50.874 -999 48 18.6 101220 60
2006-05-15 12:35 51°15.222 2°50.954 -999 1 18.5 101220 59
2006-05-15 12:36 51°15.158 2°50.907 -999 334 18.6 101210 58
2006-05-15 12:37 51°15.073 2°50.714 -999 343 18.7 101210 58
2006-05-15 12:38 51°14.974 2°50.483 -999 338 18.8 101210 57
2006-05-15 12:39 51°14.88 2°50.25 -999 340 18.9 101200 56
2006-05-15 12:40 51°14.785 2°50.011 -999 336 19.1 101210 55
2006-05-15 12:41 51°14.697 2°49.783 -999 338 19.1 101210 55
2006-05-15 12:42 51°14.603 2°49.543 -999 340 19.2 101210 56
2006-05-15 12:43 51°14.508 2°49.307 -999 330 19.2 101210 55
2006-05-15 12:44 51°14.414 2°49.07 -999 341 19.2 101210 56
2006-05-15 12:45 51°14.321 2°48.832 -999 349 19 101210 58
2006-05-15 12:46 51°14.226 2°48.597 -999 341 19 101210 57
2006-05-15 12:47 51°14.134 2°48.359 -999 344 19.1 101210 57
2006-05-15 12:48 51°14.066 2°48.181 -999 332 19.2 101210 56
2006-05-15 12:49 51°14.031 2°48.106 -999 339 19.2 101220 55
2006-05-15 12:50 51°14.027 2°48.104 -999 312 19.2 101220 56
2006-05-15 12:51 51°14.04 2°48.118 -999 292 19.2 101230 56
2006-05-15 12:52 51°14.057 2°48.136 -999 283 19.2 101230 56
2006-05-15 12:53 51°14.074 2°48.158 -999 280 19.1 101230 57
2006-05-15 12:54 51°14.092 2°48.182 -999 281 18.9 101230 58
2006-05-15 12:55 51°14.11 2°48.208 -999 277 18.9 101230 57
2006-05-15 12:56 51°14.129 2°48.235 -999 274 19 101220 57
2006-05-15 12:57 51°14.146 2°48.263 -999 274 19 101230 57
2006-05-15 12:58 51°14.164 2°48.291 -999 274 18.9 101230 57
2006-05-15 12:59 51°14.181 2°48.321 -999 275 18.9 101220 57
2006-05-15 13:00 51°14.197 2°48.351 -999 279 19 101220 58
2006-05-15 13:01 51°14.213 2°48.381 -999 281 18.9 101220 58
2006-05-15 13:02 51°14.229 2°48.349 -999 304 18.9 101220 58
2006-05-15 13:03 51°14.287 2°48.24 -999 281 18.9 101210 58
2006-05-15 13:04 51°14.391 2°48.238 -999 159 19 101210 58
2006-05-15 13:05 51°14.467 2°48.317 -999 96 19 101210 58
2006-05-15 13:06 51°14.517 2°48.411 -999 93 18.8 101210 59
2006-05-15 13:07 51°14.547 2°48.501 -999 92 18.8 101210 58
2006-05-15 13:08 51°14.574 2°48.573 -999 105 18.9 101200 57
2006-05-15 13:09 51°14.598 2°48.642 -999 112 19 101200 57
2006-05-15 13:10 51°14.621 2°48.713 -999 96 19.1 101200 57
2006-05-15 13:11 51°14.643 2°48.783 -999 93 19 101200 58
2006-05-15 13:12 51°14.662 2°48.855 -999 94 18.8 101200 59
2006-05-15 13:13 51°14.68 2°48.926 -999 102 18.6 101190 60
2006-05-15 13:14 51°14.699 2°48.997 -999 106 18.5 101190 60
2006-05-15 13:15 51°14.718 2°49.069 -999 110 18.6 101190 61
2006-05-15 13:16 51°14.735 2°49.141 -999 106 18.5 101190 61
2006-05-15 13:17 51°14.752 2°49.213 -999 108 18.4 101190 61
2006-05-15 13:18 51°14.768 2°49.286 -999 112 18.5 101190 60
2006-05-15 13:19 51°14.786 2°49.357 -999 115 18.6 101190 60
2006-05-15 13:20 51°14.803 2°49.422 -999 107 18.7 101200 59
2006-05-15 13:21 51°14.823 2°49.494 -999 113 18.7 101190 58
2006-05-15 13:22 51°14.844 2°49.574 -999 99 18.7 101180 58
2006-05-15 13:23 51°14.865 2°49.656 -999 102 18.6 101180 58
2006-05-15 13:24 51°14.885 2°49.739 -999 101 18.5 101180 58
2006-05-15 13:25 51°14.906 2°49.822 -999 103 18.6 101180 57
2006-05-15 13:26 51°14.929 2°49.905 -999 101 18.7 101180 56
2006-05-15 13:27 51°14.952 2°49.988 -999 100 18.9 101180 56
2006-05-15 13:28 51°14.975 2°50.073 -999 100 18.9 101190 57
2006-05-15 13:29 51°14.996 2°50.159 -999 99 18.8 101180 57
2006-05-15 13:30 51°15.016 2°50.244 -999 101 18.7 101180 58
2006-05-15 13:31 51°15.036 2°50.328 -999 103 18.7 101180 59
2006-05-15 13:32 51°15.046 2°50.423 -999 80 18.5 101180 60
2006-05-15 13:33 51°15.043 2°50.539 -999 59 18.4 101170 60
2006-05-15 13:34 51°15.012 2°50.646 -999 29 18.3 101170 60
2006-05-15 13:35 51°14.959 2°50.682 -999 351 18.4 101170 59
2006-05-15 13:36 51°14.925 2°50.641 -999 309 18.6 101150 57
2006-05-15 13:37 51°14.931 2°50.58 -999 270 18.7 101160 58
2006-05-15 13:38 51°14.972 2°50.553 -999 235 18.6 101170 57
2006-05-15 13:39 51°15.025 2°50.575 -999 170 18.7 101180 58
2006-05-15 13:40 51°15.071 2°50.654 -999 119 18.9 101170 56
2006-05-15 13:41 51°15.09 2°50.87 -999 65 18.8 101160 56
2006-05-15 13:42 51°15.085 2°51.225 -999 53 18.8 101160 57
2006-05-15 13:43 51°15.073 2°51.603 -999 56 18.6 101160 58
2006-05-15 13:44 51°15.027 2°51.966 -999 53 18.5 101150 59
2006-05-15 13:45 51°14.967 2°52.318 -999 55 18.6 101150 56
2006-05-15 13:46 51°14.911 2°52.673 -999 57 18.9 101160 55
2006-05-15 13:47 51°14.853 2°53.026 -999 50 18.9 101160 56
2006-05-15 13:48 51°14.79 2°53.369 -999 52 18.8 101160 57
2006-05-15 13:49 51°14.72 2°53.709 -999 51 18.9 101150 55
2006-05-15 13:50 51°14.669 2°54.008 -999 50 19.1 101160 56
2006-05-15 13:51 51°14.633 2°54.264 -999 56 19.2 101160 54
2006-05-15 13:52 51°14.591 2°54.495 -999 50 19.4 101160 53
2006-05-15 13:53 51°14.521 2°54.719 -999 60 19.7 101150 53
2006-05-15 13:54 51°14.457 2°54.896 -999 63 19.8 101150 53
2006-05-15 13:55 51°14.37 2°55.081 -999 52 19.8 101140 53
2006-05-15 13:56 51°14.269 2°55.245 -999 62 20 101140 52
2006-05-15 13:57 51°14.184 2°55.357 -999 15 20.3 101160 51
2006-05-15 13:58 51°14.092 2°55.43 -999 35 20.6 101150 50
2006-05-15 13:59 51°14.012 2°55.492 -999 24 20.7 101150 50
2006-05-15 14:00 51°13.937 2°55.544 -999 9 20.8 101140 50
2006-05-15 14:01 51°13.865 2°55.596 -999 16 20.9 101140 50
2006-05-15 14:02 51°13.797 2°55.651 -999 21 21 101150 50
2006-05-15 14:03 51°13.737 2°55.724 -999 32 20.9 101150 50
2006-05-15 14:04 51°13.687 2°55.815 -999 50 20.9 101140 49
2006-05-15 14:05 51°13.641 2°55.917 -999 38 20.9 101140 49
2006-05-15 14:06 51°13.612 2°56.001 -999 72 20.9 101150 48
2006-05-15 14:07 51°13.601 2°56.07 -999 87 20.9 101150 49
2006-05-15 14:08 51°13.602 2°56.093 -999 67 20.9 101150 48